Find Starlink 31297

NORAD ID: 59158 Int'l Des: 2024-044 Owner: SPXS Country: US Constellation: starlink operational
LEOCIRCULAR

实时位置

正在加载3D地球...

关于 Starlink 31297

正在加载描述...

即将过境

Passes for default location (London). Set your location on the main map for personalized predictions.

高度历史

Loading altitude history...

两行轨道根数

1 59158U 24044G 26110.59999096 -.00003740 00000-0 -12647-3 0 9997
2 59158 43.0004 230.4782 0001064 246.0735 114.0005 15.27576828120000
Epoch: Apr 20, 2026 • Age: 5 hours

当前状态

高度 489.0 km
速度 7.62 km/s
星下点 -24.96°S, 66.64°E
发射日期 Mar 4, 2024
运行时间 2.1 years
类型 internet

技术详情

分类 Payload
质量 730.00 kg
干质量 700.00 kg
总质量 730.00 kg
长度 0.30 m
直径 4.10 m
跨度 29.00 m
形状 Box + pan
制造商 SPXS
平台类型 Starlink V2M
阶段状态 In Orbit
所有者/国家 SPXS/US

Most Searched